Regional Weather Roundup
Issued by NWS

Home | Current Version | Previous Version | Graphics & Text | Print | Product List | Glossary On
Versions: 1 2 3 4 5 6 7 8 9 10 11 12 13 14 15 16 17 18 19 20 21 22 23 24 25 26 27 28 29 30 31 32 33 34 35 36 37 38 39 40 41 42 43 44 45 46 47 48 49 50
000
ASUS43 KOAX 270510
RWRNE

WEATHER ROUNDUP FOR NEBRASKA
NATIONAL WEATHER SERVICE OMAHA NE
1200 AM CDT SAT MAY 27 2017

NOTES: SATELLITE DATA IS BEING USED TO AUGMENT CLOUD COVER ABOVE
       12000 FEET.
       "FAIR" INDICATES FEW OR NO CLOUDS BELOW 12,000 FEET WITH NO
       SIGNIFICANT WEATHER AND/OR OBSTRUCTIONS TO VISIBILITY.

  * THESE STATIONS DO NOT REPORT WEATHER SUCH AS RAIN...SNOW OR FOG.

NEZ001>004-019>022-054>056-270600-
NEBRASKA PANHANDLE

CITY           SKY/WX    TMP DP  RH WIND       PRES   REMARKS
SCOTTSBLUFF    CLOUDY    50  47  89 NW10      30.02R
ALLIANCE       CLOUDY    50  49  96 N12       29.98F
CHADRON        LGT RAIN  50  48  93 SE12      29.99F
GORDON         LGT RAIN  51  48  92 NW3       30.01R
KIMBALL        CLOUDY    50  49  97 N12       30.01R
SIDNEY         LGT RAIN  51  50  96 NE10G20   29.99R
$$

NEZ057>060-069>072-079>082-270600-
SOUTHWEST NEBRASKA

CITY           SKY/WX    TMP DP  RH WIND       PRES   REMARKS
NORTH PLATTE   CLOUDY    64  50  60 SE9       29.90R
IMPERIAL       LGT RAIN  57  51  80 SE35G47   29.82F
LEXINGTON      CLOUDY    64  51  61 SE5       29.91R
MCCOOK         RAIN      61  57  87 S16       29.93F
OGALLALA       RAIN      58  54  86 NW21      29.93R
$$

NEZ005>010-023>029-035>040-094-270600-
NORTH CENTRAL NEBRASKA

CITY           SKY/WX    TMP DP  RH WIND       PRES   REMARKS
VALENTINE      LGT RAIN  56  49  77 NW6       29.97R
AINSWORTH      CLOUDY    58  49  71 SE3       29.95R
BROKEN BOW     CLOUDY    63  46  54 E10       29.90S
O`NEILL        CLOUDY    57  45  64 CALM      29.92F
ORD            CLOUDY    60  45  57 CALM      29.91R
THEDFORD       LGT RAIN  61  47  59 E6        29.95R
$$

NEZ041-046>049-061>064-073>077-083>087-270600-
SOUTH CENTRAL NEBRASKA

CITY           SKY/WX    TMP DP  RH WIND       PRES   REMARKS
GRAND ISLAND   CLOUDY    59  49  69 N6        29.92R
AURORA         CLOUDY    62  47  58 E3        29.90R
HASTINGS       CLOUDY    62  49  62 N6        29.91R
HEBRON         CLOUDY    62  53  72 CALM      29.87R
HOLDREGE       CLOUDY    63  49  60 E9        29.90S
KEARNEY *      CLOUDY    61  48  63 NE7       29.91S
YORK           CLOUDY    63  48  59 NE7       29.89R
$$

NEZ011>018-030>034-042>045-270600-
NORTHEAST NEBRASKA

CITY           SKY/WX    TMP DP  RH WIND       PRES   REMARKS
NORFOLK        PTCLDY    55  45  68 NW3       29.90R
ALBION         CLOUDY    60  45  56 N7        29.91S
BLAIR          CLOUDY    64  48  57 N9        29.88R
FREMONT        CLOUDY    65  45  48 CALM      29.89R
TEKAMAH        CLEAR     59  48  67 N3        29.87S
WAYNE          CLOUDY    56  45  65 CALM      29.90S
$$

NEZ050>053-065>068-078-088>093-270600-
SOUTHEAST NEBRASKA

CITY           SKY/WX    TMP DP  RH WIND       PRES   REMARKS
LINCOLN        CLOUDY    66  51  58 N7        29.87S
OMAHA EPPLEY   CLOUDY    61  51  70 N8        29.86S
BEATRICE       CLOUDY    65  50  58 NE3       29.86R
FALLS CITY     CLEAR     68  52  56 CALM      29.83F
NEBRASKA CITY  CLOUDY    69  45  41 NE3       29.86S
PLATTSMOUTH    CLOUDY    70  49  47 CALM      29.86S
$$

NEZ044-045-051>053-067-270600-
OMAHA AREA

CITY           SKY/WX    TMP DP  RH WIND       PRES   REMARKS
OMAHA EPPLEY   CLOUDY    61  51  70 N8        29.86S
BLAIR          CLOUDY    64  48  57 N9        29.88R
FREMONT        CLOUDY    65  45  48 CALM      29.89R
MILLARD        CLOUDY    70  50  49 N3        29.86S
OFFUTT AFB     CLOUDY    58  53  84 N8        29.85S
PLATTSMOUTH    CLOUDY    70  49  47 CALM      29.86S
WAHOO          FAIR      61  47  60 N7        29.88R
$$




USA.gov is the U.S. government's official web portal to all federal, state and local government web resources and services.